Time,TemperatureF,DewpointF,PressureIn,WindDirection,WindDirectionDegrees,WindSpeedMPH,WindSpeedGustMPH,Humidity,HourlyPrecipIn,Conditions,Clouds,dailyrainin,SoftwareType,DateUTC
2013-02-15 00:01:00,65.5,60.2,30.05,NE,54,6.0,7.0,83,0.00,,,0.00,VWS V14.01,2013-02-15 10:01:00,
2013-02-15 00:07:00,65.4,59.8,30.05,NE,52,11.0,11.0,82,0.00,,,0.00,VWS V14.01,2013-02-15 10:07:00,
2013-02-15 00:12:00,65.4,59.4,30.05,NE,35,7.0,13.0,81,0.00,,,0.00,VWS V14.01,2013-02-15 10:12:00,
2013-02-15 00:17:00,65.4,59.4,30.05,NNE,25,5.0,6.0,81,0.00,,,0.00,VWS V14.01,2013-02-15 10:17:00,
2013-02-15 00:22:00,65.3,59.7,30.05,NNE,12,6.0,9.0,82,0.00,,,0.00,VWS V14.01,2013-02-15 10:22:00,
2013-02-15 00:27:00,65.4,59.8,30.05,NNE,32,3.0,5.0,82,0.00,,,0.00,VWS V14.01,2013-02-15 10:27:00,
2013-02-15 00:32:00,65.6,60.0,30.05,NE,52,6.0,6.0,82,0.00,,,0.00,VWS V14.01,2013-02-15 10:32:00,
2013-02-15 00:37:00,65.7,60.1,30.05,East,83,1.0,2.0,82,0.00,,,0.00,VWS V14.01,2013-02-15 10:37:00,
2013-02-15 00:42:00,65.8,60.2,30.05,NE,40,6.0,6.0,82,0.00,,,0.00,VWS V14.01,2013-02-15 10:42:00,
2013-02-15 00:48:00,65.9,60.3,30.05,NNE,24,5.0,5.0,82,0.00,,,0.00,VWS V14.01,2013-02-15 10:48:00,
2013-02-15 00:53:00,65.9,59.9,30.04,NNE,26,8.0,8.0,81,0.00,,,0.00,VWS V14.01,2013-02-15 10:53:00,
2013-02-15 00:58:00,65.9,59.9,30.04,NNE,19,5.0,6.0,81,0.00,,,0.00,VWS V14.01,2013-02-15 10:58:00,
2013-02-15 01:03:00,65.8,59.8,30.04,NE,46,4.0,7.0,81,0.00,,,0.00,VWS V14.01,2013-02-15 11:03:00,
2013-02-15 01:08:00,65.7,59.7,30.04,NNE,33,4.0,5.0,81,0.00,,,0.00,VWS V14.01,2013-02-15 11:08:00,
2013-02-15 01:13:00,65.6,59.6,30.03,NNE,31,8.0,8.0,81,0.00,,,0.00,VWS V14.01,2013-02-15 11:13:00,
2013-02-15 01:18:00,65.6,59.3,30.03,NE,38,3.0,5.0,80,0.00,,,0.00,VWS V14.01,2013-02-15 11:18:00,
2013-02-15 01:23:00,65.6,58.9,30.03,NE,42,4.0,4.0,79,0.00,,,0.00,VWS V14.01,2013-02-15 11:23:00,
2013-02-15 01:29:00,65.6,58.9,30.03,NNE,25,11.0,12.0,79,0.00,,,0.00,VWS V14.01,2013-02-15 11:29:00,
2013-02-15 01:34:00,65.7,58.3,30.03,NE,40,7.0,7.0,77,0.00,,,0.00,VWS V14.01,2013-02-15 11:34:00,
2013-02-15 01:39:00,65.7,58.3,30.03,NE,42,6.0,9.0,77,0.00,,,0.00,VWS V14.01,2013-02-15 11:39:00,
2013-02-15 01:44:00,65.8,58.0,30.03,NE,38,12.0,12.0,76,0.00,,,0.00,VWS V14.01,2013-02-15 11:44:00,
2013-02-15 01:49:00,65.8,58.4,30.03,NNE,23,4.0,4.0,77,0.00,,,0.00,VWS V14.01,2013-02-15 11:49:00,
2013-02-15 01:54:00,66.0,58.2,30.03,NE,50,6.0,8.0,76,0.00,,,0.00,VWS V14.01,2013-02-15 11:54:00,
2013-02-15 01:59:00,66.0,58.6,30.03,NNE,18,6.0,6.0,77,0.00,,,0.00,VWS V14.01,2013-02-15 11:59:00,
2013-02-15 02:04:00,65.8,58.4,30.03,NNE,28,7.0,7.0,77,0.00,,,0.00,VWS V14.01,2013-02-15 12:04:00,
2013-02-15 02:09:00,65.9,58.5,30.03,NE,38,8.0,11.0,77,0.00,,,0.00,VWS V14.01,2013-02-15 12:09:00,
2013-02-15 02:15:00,65.9,58.9,30.03,ENE,57,5.0,5.0,78,0.00,,,0.00,VWS V14.01,2013-02-15 12:15:00,
2013-02-15 02:20:00,66.0,59.0,30.02,NNE,31,4.0,4.0,78,0.00,,,0.00,VWS V14.01,2013-02-15 12:20:00,
2013-02-15 02:25:00,65.8,59.1,30.03,NE,53,4.0,5.0,79,0.00,,,0.00,VWS V14.01,2013-02-15 12:25:00,
2013-02-15 02:30:00,65.4,59.4,30.02,NE,53,6.0,7.0,81,0.00,,,0.00,VWS V14.01,2013-02-15 12:30:00,
2013-02-15 02:35:00,65.4,59.4,30.02,NE,44,7.0,7.0,81,0.00,,,0.00,VWS V14.01,2013-02-15 12:35:00,
2013-02-15 02:40:00,65.4,59.4,30.02,NNE,29,6.0,6.0,81,0.00,,,0.00,VWS V14.01,2013-02-15 12:40:00,
2013-02-15 02:45:00,65.4,59.1,30.02,North,9,7.0,8.0,80,0.00,,,0.00,VWS V14.01,2013-02-15 12:45:00,
2013-02-15 02:50:00,65.4,59.4,30.02,ENE,75,7.0,7.0,81,0.00,,,0.00,VWS V14.01,2013-02-15 12:50:00,
2013-02-15 02:55:00,65.4,59.1,30.02,NE,42,6.0,6.0,80,0.00,,,0.00,VWS V14.01,2013-02-15 12:55:00,
2013-02-15 03:00:00,65.4,59.1,30.02,NE,38,3.0,5.0,80,0.00,,,0.00,VWS V14.01,2013-02-15 13:00:00,
2013-02-15 03:06:00,65.4,58.7,30.02,NNE,21,3.0,3.0,79,0.00,,,0.00,VWS V14.01,2013-02-15 13:06:00,
2013-02-15 03:11:00,65.3,58.6,30.02,NNE,22,7.0,7.0,79,0.00,,,0.00,VWS V14.01,2013-02-15 13:11:00,
2013-02-15 03:16:00,65.4,58.4,30.02,NE,45,4.0,5.0,78,0.00,,,0.00,VWS V14.01,2013-02-15 13:16:00,
2013-02-15 03:21:00,65.3,57.9,30.02,NE,43,4.0,4.0,77,0.00,,,0.00,VWS V14.01,2013-02-15 13:21:00,
2013-02-15 03:26:00,65.3,57.9,30.02,NNE,29,5.0,5.0,77,0.00,,,0.00,VWS V14.01,2013-02-15 13:26:00,
2013-02-15 03:31:00,65.2,57.8,30.02,NE,42,6.0,7.0,77,0.00,,,0.00,VWS V14.01,2013-02-15 13:31:00,
2013-02-15 03:36:00,65.0,57.6,30.02,NE,38,4.0,6.0,77,0.00,,,0.00,VWS V14.01,2013-02-15 13:36:00,
2013-02-15 03:41:00,65.0,57.3,30.02,NE,48,5.0,5.0,76,0.00,,,0.00,VWS V14.01,2013-02-15 13:41:00,
2013-02-15 03:46:00,65.1,57.0,30.02,NE,36,4.0,4.0,75,0.00,,,0.00,VWS V14.01,2013-02-15 13:46:00,
2013-02-15 03:51:00,65.1,57.4,30.02,NNE,22,7.0,8.0,76,0.00,,,0.00,VWS V14.01,2013-02-15 13:51:00,
2013-02-15 03:56:00,65.0,57.3,30.02,NNE,12,6.0,7.0,76,0.00,,,0.00,VWS V14.01,2013-02-15 13:56:00,
2013-02-15 04:02:00,65.0,57.3,30.02,North,9,2.0,3.0,76,0.00,,,0.00,VWS V14.01,2013-02-15 14:02:00,
2013-02-15 04:07:00,65.3,57.5,30.02,NE,54,4.0,4.0,76,0.00,,,0.00,VWS V14.01,2013-02-15 14:07:00,
2013-02-15 04:12:00,65.4,57.7,30.02,NNE,25,5.0,5.0,76,0.00,,,0.00,VWS V14.01,2013-02-15 14:12:00,
2013-02-15 04:17:00,65.6,57.8,30.02,NNE,22,8.0,8.0,76,0.00,,,0.00,VWS V14.01,2013-02-15 14:17:00,
2013-02-15 04:22:00,65.5,58.1,30.01,NNE,21,5.0,5.0,77,0.00,,,0.00,VWS V14.01,2013-02-15 14:22:00,
2013-02-15 04:27:00,65.4,58.0,30.01,NNE,30,3.0,4.0,77,0.00,,,0.00,VWS V14.01,2013-02-15 14:27:00,
2013-02-15 04:32:00,65.5,58.1,30.01,NNE,26,5.0,6.0,77,0.00,,,0.00,VWS V14.01,2013-02-15 14:32:00,
2013-02-15 04:37:00,65.3,58.3,30.01,NNE,22,7.0,7.0,78,0.00,,,0.00,VWS V14.01,2013-02-15 14:37:00,
2013-02-15 04:42:00,65.3,58.3,30.01,NNE,26,3.0,4.0,78,0.00,,,0.00,VWS V14.01,2013-02-15 14:42:00,
2013-02-15 04:48:00,65.4,58.0,30.01,NNE,31,6.0,7.0,77,0.00,,,0.00,VWS V14.01,2013-02-15 14:48:00,
2013-02-15 04:53:00,65.5,58.5,30.01,NE,41,8.0,8.0,78,0.00,,,0.00,VWS V14.01,2013-02-15 14:53:00,
2013-02-15 04:58:00,65.4,59.4,30.00,ENE,58,6.0,6.0,81,0.00,,,0.00,VWS V14.01,2013-02-15 14:58:00,
2013-02-15 05:03:00,65.2,59.6,30.01,East,91,5.0,6.0,82,0.00,,,0.00,VWS V14.01,2013-02-15 15:03:00,
2013-02-15 05:08:00,65.1,59.8,30.01,ENE,59,5.0,9.0,83,0.00,,,0.00,VWS V14.01,2013-02-15 15:08:00,
2013-02-15 05:13:00,65.0,60.0,30.01,East,85,5.0,5.0,84,0.00,,,0.00,VWS V14.01,2013-02-15 15:13:00,
2013-02-15 05:18:00,64.9,60.0,30.01,NE,54,10.0,10.0,84,0.00,,,0.00,VWS V14.01,2013-02-15 15:18:00,
2013-02-15 05:23:00,64.8,59.9,30.01,NE,44,7.0,8.0,84,0.00,,,0.00,VWS V14.01,2013-02-15 15:23:00,
2013-02-15 05:29:00,64.8,59.5,30.01,NE,40,9.0,13.0,83,0.00,,,0.00,VWS V14.01,2013-02-15 15:29:00,
2013-02-15 05:34:00,64.9,59.3,30.02,NE,42,5.0,9.0,82,0.00,,,0.00,VWS V14.01,2013-02-15 15:34:00,
2013-02-15 05:39:00,64.9,58.9,30.02,North,2,8.0,9.0,81,0.00,,,0.00,VWS V14.01,2013-02-15 15:39:00,
2013-02-15 05:44:00,65.0,59.0,30.02,North,357,7.0,7.0,81,0.00,,,0.00,VWS V14.01,2013-02-15 15:44:00,
2013-02-15 05:49:00,65.2,58.9,30.02,North,5,7.0,8.0,80,0.00,,,0.00,VWS V14.01,2013-02-15 15:49:00,
2013-02-15 05:54:00,65.2,58.5,30.02,NNE,23,6.0,7.0,79,0.00,,,0.00,VWS V14.01,2013-02-15 15:54:00,
2013-02-15 05:59:00,65.3,58.3,30.02,NNE,18,12.0,12.0,78,0.00,,,0.00,VWS V14.01,2013-02-15 15:59:00,
2013-02-15 06:04:00,65.6,58.2,30.02,NNE,30,6.0,9.0,77,0.00,,,0.00,VWS V14.01,2013-02-15 16:04:00,
2013-02-15 06:09:00,65.6,58.2,30.02,NNE,24,5.0,5.0,77,0.00,,,0.00,VWS V14.01,2013-02-15 16:09:00,
2013-02-15 06:14:00,65.7,58.7,30.02,North,354,7.0,9.0,78,0.00,,,0.00,VWS V14.01,2013-02-15 16:14:00,
2013-02-15 06:20:00,65.7,58.7,30.03,NNE,32,4.0,4.0,78,0.00,,,0.00,VWS V14.01,2013-02-15 16:20:00,
2013-02-15 06:25:00,65.6,58.6,30.03,North,355,10.0,12.0,78,0.00,,,0.00,VWS V14.01,2013-02-15 16:25:00,
2013-02-15 06:30:00,65.7,58.7,30.03,NE,49,7.0,7.0,78,0.00,,,0.00,VWS V14.01,2013-02-15 16:30:00,
2013-02-15 06:35:00,65.8,59.1,30.03,ENE,57,7.0,7.0,79,0.00,,,0.00,VWS V14.01,2013-02-15 16:35:00,
2013-02-15 06:40:00,65.8,59.5,30.03,North,360,9.0,15.0,80,0.00,,,0.00,VWS V14.01,2013-02-15 16:40:00,
2013-02-15 06:45:00,65.8,59.5,30.03,North,351,11.0,12.0,80,0.00,,,0.00,VWS V14.01,2013-02-15 16:45:00,
2013-02-15 06:50:00,65.6,59.3,30.03,NNE,31,6.0,6.0,80,0.00,,,0.00,VWS V14.01,2013-02-15 16:50:00,
2013-02-15 06:55:00,65.8,59.8,30.04,NNE,18,10.0,12.0,81,0.00,,,0.00,VWS V14.01,2013-02-15 16:55:00,
2013-02-15 07:00:00,65.9,59.6,30.03,NNE,26,13.0,13.0,80,0.00,,,0.00,VWS V14.01,2013-02-15 17:00:00,
2013-02-15 07:06:00,66.1,59.8,30.04,NE,38,5.0,7.0,80,0.00,,,0.00,VWS V14.01,2013-02-15 17:06:00,
2013-02-15 07:11:00,65.9,59.6,30.04,NE,54,5.0,5.0,80,0.00,,,0.00,VWS V14.01,2013-02-15 17:11:00,
2013-02-15 07:16:00,66.4,60.0,30.04,NNE,31,7.0,7.0,80,0.00,,,0.00,VWS V14.01,2013-02-15 17:16:00,
2013-02-15 07:21:00,66.9,60.2,30.05,East,92,4.0,5.0,79,0.00,,,0.00,VWS V14.01,2013-02-15 17:21:00,
2013-02-15 07:26:00,67.1,60.0,30.05,ENE,57,7.0,7.0,78,0.00,,,0.00,VWS V14.01,2013-02-15 17:26:00,
2013-02-15 07:31:00,67.4,60.3,30.04,NNE,30,4.0,4.0,78,0.00,,,0.00,VWS V14.01,2013-02-15 17:31:00,
2013-02-15 07:36:00,67.7,60.2,30.05,East,79,6.0,6.0,77,0.00,,,0.00,VWS V14.01,2013-02-15 17:36:00,
2013-02-15 07:41:00,68.0,60.2,30.05,NE,56,3.0,5.0,76,0.00,,,0.00,VWS V14.01,2013-02-15 17:41:00,
2013-02-15 07:46:00,68.2,59.6,30.05,NE,40,5.0,6.0,74,0.00,,,0.00,VWS V14.01,2013-02-15 17:46:00,
2013-02-15 07:52:00,68.4,59.8,30.05,ENE,59,5.0,8.0,74,0.00,,,0.00,VWS V14.01,2013-02-15 17:52:00,
2013-02-15 07:57:00,68.7,59.7,30.05,NNE,30,4.0,6.0,73,0.00,,,0.00,VWS V14.01,2013-02-15 17:57:00,
2013-02-15 08:02:00,68.6,59.6,30.05,NE,44,10.0,10.0,73,0.00,,,0.00,VWS V14.01,2013-02-15 18:02:00,
2013-02-15 08:07:00,68.7,58.9,30.05,NNE,27,6.0,12.0,71,0.00,,,0.00,VWS V14.01,2013-02-15 18:07:00,
2013-02-15 08:12:00,68.9,58.7,30.05,ENE,68,7.0,8.0,70,0.00,,,0.00,VWS V14.01,2013-02-15 18:12:00,
2013-02-15 08:17:00,68.8,58.6,30.05,NNE,26,6.0,7.0,70,0.00,,,0.00,VWS V14.01,2013-02-15 18:17:00,
2013-02-15 08:22:00,69.0,58.4,30.05,NE,36,6.0,7.0,69,0.00,,,0.00,VWS V14.01,2013-02-15 18:22:00,
2013-02-15 08:27:00,69.2,58.6,30.06,ESE,111,0.0,0.0,69,0.00,,,0.00,VWS V14.01,2013-02-15 18:27:00,
2013-02-15 08:33:00,69.6,59.4,30.06,NE,54,8.0,9.0,70,0.00,,,0.00,VWS V14.01,2013-02-15 18:33:00,
2013-02-15 08:38:00,69.7,58.7,30.06,NNE,14,16.0,16.0,68,0.00,,,0.00,VWS V14.01,2013-02-15 18:38:00,
2013-02-15 08:43:00,69.8,58.8,30.06,NNE,28,5.0,5.0,68,0.00,,,0.00,VWS V14.01,2013-02-15 18:43:00,
2013-02-15 08:48:00,70.2,59.2,30.06,NE,50,7.0,7.0,68,0.00,,,0.00,VWS V14.01,2013-02-15 18:48:00,
2013-02-15 08:53:00,70.5,59.4,30.06,NE,42,7.0,7.0,68,0.00,,,0.00,VWS V14.01,2013-02-15 18:53:00,
2013-02-15 08:58:00,70.1,58.7,30.06,NW,318,11.0,11.0,67,0.00,,,0.00,VWS V14.01,2013-02-15 18:58:00,
2013-02-15 09:03:00,70.3,58.8,30.06,NE,46,6.0,9.0,67,0.00,,,0.00,VWS V14.01,2013-02-15 19:03:00,
2013-02-15 09:08:00,70.4,58.9,30.06,NE,45,5.0,6.0,67,0.00,,,0.00,VWS V14.01,2013-02-15 19:08:00,
2013-02-15 09:14:00,70.5,59.4,30.07,NE,34,8.0,8.0,68,0.00,,,0.00,VWS V14.01,2013-02-15 19:14:00,
2013-02-15 09:19:00,70.6,59.5,30.07,NE,37,7.0,10.0,68,0.00,,,0.00,VWS V14.01,2013-02-15 19:19:00,
2013-02-15 09:24:00,70.6,59.1,30.06,NNW,333,11.0,11.0,67,0.00,,,0.00,VWS V14.01,2013-02-15 19:24:00,
2013-02-15 09:29:00,70.5,58.2,30.06,North,7,11.0,15.0,65,0.00,,,0.00,VWS V14.01,2013-02-15 19:29:00,
2013-02-15 09:34:00,70.3,58.4,30.06,NNE,33,16.0,16.0,66,0.00,,,0.00,VWS V14.01,2013-02-15 19:34:00,
2013-02-15 09:39:00,70.0,59.0,30.06,NE,38,11.0,11.0,68,0.00,,,0.00,VWS V14.01,2013-02-15 19:39:00,
2013-02-15 09:44:00,70.3,59.2,30.07,NE,43,10.0,12.0,68,0.00,,,0.00,VWS V14.01,2013-02-15 19:44:00,
2013-02-15 09:49:00,70.1,59.5,30.07,NNE,23,18.0,18.0,69,0.00,,,0.00,VWS V14.01,2013-02-15 19:49:00,
2013-02-15 09:54:00,70.1,60.3,30.07,East,86,14.0,17.0,71,0.00,,,0.00,VWS V14.01,2013-02-15 19:54:00,
2013-02-15 09:59:00,70.1,60.7,30.07,East,84,10.0,11.0,72,0.00,,,0.00,VWS V14.01,2013-02-15 19:59:00,
2013-02-15 10:04:00,69.9,60.9,30.06,NE,50,7.0,9.0,73,0.00,,,0.00,VWS V14.01,2013-02-15 20:04:00,
2013-02-15 10:09:00,69.9,61.6,30.06,NE,51,8.0,9.0,75,0.00,,,0.00,VWS V14.01,2013-02-15 20:09:00,
2013-02-15 10:15:00,70.3,62.4,30.06,NE,44,13.0,16.0,76,0.00,,,0.00,VWS V14.01,2013-02-15 20:15:00,
2013-02-15 10:20:00,71.0,62.7,30.06,ESE,104,13.0,16.0,75,0.00,,,0.00,VWS V14.01,2013-02-15 20:20:00,
2013-02-15 10:25:00,71.4,63.1,30.06,East,89,19.0,19.0,75,0.00,,,0.00,VWS V14.01,2013-02-15 20:25:00,
2013-02-15 10:30:00,70.8,62.9,30.06,East,79,13.0,17.0,76,0.00,,,0.00,VWS V14.01,2013-02-15 20:30:00,
2013-02-15 10:35:00,70.5,63.3,30.06,ENE,71,18.0,19.0,78,0.00,,,0.00,VWS V14.01,2013-02-15 20:35:00,
2013-02-15 10:40:00,70.5,63.7,30.06,ESE,116,12.0,12.0,79,0.00,,,0.00,VWS V14.01,2013-02-15 20:40:00,
2013-02-15 10:45:00,71.4,63.8,30.06,East,100,15.0,23.0,77,0.00,,,0.00,VWS V14.01,2013-02-15 20:45:00,
2013-02-15 10:50:00,71.8,63.8,30.07,East,97,8.0,10.0,76,0.00,,,0.00,VWS V14.01,2013-02-15 20:50:00,
2013-02-15 10:55:00,71.9,64.3,30.06,ENE,57,10.0,10.0,77,0.00,,,0.00,VWS V14.01,2013-02-15 20:55:00,
2013-02-15 11:00:00,71.9,63.9,30.06,ESE,113,15.0,18.0,76,0.00,,,0.00,VWS V14.01,2013-02-15 21:00:00,
2013-02-15 11:05:00,71.4,63.8,30.06,NNE,33,16.0,16.0,77,0.00,,,0.00,VWS V14.01,2013-02-15 21:05:00,
2013-02-15 11:10:00,70.5,63.7,30.06,NE,49,11.0,17.0,79,0.00,,,0.00,VWS V14.01,2013-02-15 21:10:00,
2013-02-15 11:15:00,70.7,64.2,30.05,NE,51,12.0,19.0,80,0.00,,,0.00,VWS V14.01,2013-02-15 21:15:00,
2013-02-15 11:21:00,70.3,63.8,30.05,NE,47,12.0,17.0,80,0.00,,,0.00,VWS V14.01,2013-02-15 21:21:00,
2013-02-15 11:26:00,70.0,64.3,30.05,NE,42,11.0,16.0,82,0.00,,,0.00,VWS V14.01,2013-02-15 21:26:00,
2013-02-15 11:31:00,70.1,64.7,30.05,East,86,27.0,27.0,83,0.00,,,0.00,VWS V14.01,2013-02-15 21:31:00,
2013-02-15 11:36:00,69.8,64.1,30.04,NNE,21,15.0,15.0,82,0.00,,,0.00,VWS V14.01,2013-02-15 21:36:00,
2013-02-15 11:41:00,70.2,64.8,30.04,NNE,17,25.0,25.0,83,0.00,,,0.00,VWS V14.01,2013-02-15 21:41:00,
2013-02-15 11:46:00,70.5,64.4,30.03,East,96,10.0,10.0,81,0.00,,,0.00,VWS V14.01,2013-02-15 21:46:00,
2013-02-15 11:51:00,70.3,64.6,30.03,NNE,28,14.0,17.0,82,0.00,,,0.00,VWS V14.01,2013-02-15 21:51:00,
2013-02-15 11:56:00,69.9,64.2,30.03,North,10,12.0,17.0,82,0.00,,,0.00,VWS V14.01,2013-02-15 21:56:00,
2013-02-15 12:01:00,69.7,64.7,30.03,NE,38,9.0,12.0,84,0.00,,,0.00,VWS V14.01,2013-02-15 22:01:00,
2013-02-15 12:06:00,70.1,64.7,30.03,ENE,63,9.0,13.0,83,0.00,,,0.00,VWS V14.01,2013-02-15 22:06:00,
2013-02-15 12:11:00,70.3,65.2,30.03,NE,53,18.0,22.0,84,0.00,,,0.00,VWS V14.01,2013-02-15 22:11:00,
2013-02-15 12:16:00,70.0,64.9,30.03,NE,50,15.0,15.0,84,0.00,,,0.00,VWS V14.01,2013-02-15 22:16:00,
2013-02-15 12:21:00,70.4,65.0,30.02,NE,54,19.0,22.0,83,0.00,,,0.00,VWS V14.01,2013-02-15 22:21:00,
2013-02-15 12:26:00,71.2,65.4,30.02,East,83,12.0,17.0,82,0.00,,,0.00,VWS V14.01,2013-02-15 22:26:00,
2013-02-15 12:31:00,71.0,65.2,30.02,East,90,14.0,21.0,82,0.00,,,0.00,VWS V14.01,2013-02-15 22:31:00,
2013-02-15 12:36:00,71.0,64.9,30.02,ENE,64,14.0,14.0,81,0.00,,,0.00,VWS V14.01,2013-02-15 22:36:00,
2013-02-15 12:41:00,71.3,65.2,30.02,East,80,15.0,17.0,81,0.00,,,0.00,VWS V14.01,2013-02-15 22:41:00,
2013-02-15 12:46:00,70.9,65.5,30.01,NE,49,8.0,11.0,83,0.00,,,0.00,VWS V14.01,2013-02-15 22:46:00,
2013-02-15 12:52:00,70.7,66.0,30.01,ENE,59,14.0,14.0,85,0.00,,,0.00,VWS V14.01,2013-02-15 22:52:00,
2013-02-15 12:57:00,70.7,66.0,30.01,NE,54,17.0,23.0,85,0.00,,,0.00,VWS V14.01,2013-02-15 22:57:00,
2013-02-15 13:02:00,70.6,65.2,30.01,ENE,69,14.0,19.0,83,0.00,,,0.00,VWS V14.01,2013-02-15 23:02:00,
2013-02-15 13:07:00,71.0,65.6,30.01,East,89,7.0,10.0,83,0.00,,,0.00,VWS V14.01,2013-02-15 23:07:00,
2013-02-15 13:12:00,71.3,64.8,30.01,ENE,76,14.0,15.0,80,0.00,,,0.00,VWS V14.01,2013-02-15 23:12:00,
2013-02-15 13:17:00,71.2,64.4,30.01,East,97,25.0,25.0,79,0.00,,,0.00,VWS V14.01,2013-02-15 23:17:00,
2013-02-15 13:22:00,71.4,64.2,30.00,ENE,73,14.0,15.0,78,0.00,,,0.00,VWS V14.01,2013-02-15 23:22:00,
2013-02-15 13:27:00,71.1,65.0,30.00,ENE,72,14.0,14.0,81,0.00,,,0.00,VWS V14.01,2013-02-15 23:27:00,
2013-02-15 13:32:00,70.8,65.7,30.00,ENE,58,20.0,23.0,84,0.00,,,0.00,VWS V14.01,2013-02-15 23:32:00,
2013-02-15 13:37:00,70.5,65.1,30.00,NE,54,20.0,20.0,83,0.00,,,0.00,VWS V14.01,2013-02-15 23:37:00,
2013-02-15 13:42:00,70.6,65.2,30.00,NE,56,15.0,15.0,83,0.00,,,0.00,VWS V14.01,2013-02-15 23:42:00,
2013-02-15 13:47:00,70.6,65.5,30.00,ENE,58,14.0,19.0,84,0.00,,,0.00,VWS V14.01,2013-02-15 23:47:00,
2013-02-15 13:52:00,70.8,65.4,29.99,ENE,59,12.0,14.0,83,0.00,,,0.00,VWS V14.01,2013-02-15 23:52:00,
2013-02-15 13:58:00,70.7,64.9,29.99,NE,53,8.0,11.0,82,0.00,,,0.00,VWS V14.01,2013-02-15 23:58:00,
2013-02-15 14:03:00,70.7,64.9,29.99,NE,35,21.0,21.0,82,0.00,,,0.00,VWS V14.01,2013-02-16 00:03:00,
2013-02-15 14:08:00,70.7,64.9,29.99,ENE,59,15.0,16.0,82,0.00,,,0.00,VWS V14.01,2013-02-16 00:08:00,
2013-02-15 14:13:00,70.4,64.7,29.99,ENE,78,12.0,12.0,82,0.00,,,0.00,VWS V14.01,2013-02-16 00:13:00,
2013-02-15 14:18:00,69.9,64.5,29.99,NE,42,18.0,19.0,83,0.00,,,0.00,VWS V14.01,2013-02-16 00:18:00,
2013-02-15 14:23:00,69.9,64.5,29.99,NNE,31,18.0,18.0,83,0.00,,,0.00,VWS V14.01,2013-02-16 00:23:00,
2013-02-15 14:28:00,70.2,64.4,29.98,NNW,342,19.0,20.0,82,0.00,,,0.00,VWS V14.01,2013-02-16 00:28:00,
2013-02-15 14:33:00,70.5,64.4,29.98,North,4,14.0,14.0,81,0.00,,,0.00,VWS V14.01,2013-02-16 00:33:00,
2013-02-15 14:38:00,70.9,64.8,29.98,NNE,17,11.0,11.0,81,0.00,,,0.00,VWS V14.01,2013-02-16 00:38:00,
2013-02-15 14:43:00,71.1,64.6,29.98,North,2,12.0,13.0,80,0.00,,,0.00,VWS V14.01,2013-02-16 00:43:00,
2013-02-15 14:48:00,71.4,64.9,29.98,NE,40,11.0,12.0,80,0.00,,,0.00,VWS V14.01,2013-02-16 00:48:00,
2013-02-15 14:53:00,71.7,64.5,29.98,East,85,11.0,21.0,78,0.00,,,0.00,VWS V14.01,2013-02-16 00:53:00,
2013-02-15 14:58:00,71.6,64.0,29.98,ENE,69,12.0,16.0,77,0.00,,,0.00,VWS V14.01,2013-02-16 00:58:00,
2013-02-15 15:03:00,71.8,63.8,29.98,East,95,16.0,23.0,76,0.00,,,0.00,VWS V14.01,2013-02-16 01:03:00,
2013-02-15 15:09:00,71.8,63.1,29.98,NE,46,9.0,14.0,74,0.00,,,0.00,VWS V14.01,2013-02-16 01:09:00,
2013-02-15 15:14:00,71.9,63.5,29.98,ENE,58,11.0,11.0,75,0.00,,,0.00,VWS V14.01,2013-02-16 01:14:00,
2013-02-15 15:19:00,71.8,64.2,29.98,NNE,33,12.0,13.0,77,0.00,,,0.00,VWS V14.01,2013-02-16 01:19:00,
2013-02-15 15:24:00,71.9,64.3,29.98,ENE,74,17.0,17.0,77,0.00,,,0.00,VWS V14.01,2013-02-16 01:24:00,
2013-02-15 15:29:00,71.7,64.1,29.99,ENE,59,18.0,18.0,77,0.00,,,0.00,VWS V14.01,2013-02-16 01:29:00,
2013-02-15 15:34:00,71.4,63.8,29.99,ENE,65,14.0,14.0,77,0.00,,,0.00,VWS V14.01,2013-02-16 01:34:00,
2013-02-15 15:39:00,71.1,64.3,29.99,NE,46,18.0,18.0,79,0.00,,,0.00,VWS V14.01,2013-02-16 01:39:00,
2013-02-15 15:44:00,70.5,64.0,29.99,NE,44,7.0,7.0,80,0.00,,,0.00,VWS V14.01,2013-02-16 01:44:00,
2013-02-15 15:49:00,70.3,63.5,29.99,NE,43,14.0,14.0,79,0.00,,,0.00,VWS V14.01,2013-02-16 01:49:00,
2013-02-15 15:54:00,70.5,63.7,29.99,ENE,62,13.0,16.0,79,0.00,,,0.00,VWS V14.01,2013-02-16 01:54:00,
2013-02-15 16:00:00,70.5,63.7,30.00,East,99,15.0,16.0,79,0.00,,,0.00,VWS V14.01,2013-02-16 02:00:00,
2013-02-15 16:05:00,70.5,63.7,30.00,ENE,59,21.0,21.0,79,0.00,,,0.00,VWS V14.01,2013-02-16 02:05:00,
2013-02-15 16:10:00,70.4,63.9,30.00,NE,39,11.0,14.0,80,0.00,,,0.00,VWS V14.01,2013-02-16 02:10:00,
2013-02-15 16:15:00,70.1,63.3,30.00,East,97,13.0,15.0,79,0.00,,,0.00,VWS V14.01,2013-02-16 02:15:00,
2013-02-15 16:20:00,69.7,63.3,30.00,ENE,72,10.0,11.0,80,0.00,,,0.00,VWS V14.01,2013-02-16 02:20:00,
2013-02-15 16:25:00,69.4,63.3,29.99,NNE,14,7.0,11.0,81,0.00,,,0.00,VWS V14.01,2013-02-16 02:25:00,
2013-02-15 16:30:00,69.3,63.6,30.00,NE,54,15.0,20.0,82,0.00,,,0.00,VWS V14.01,2013-02-16 02:30:00,
2013-02-15 16:35:00,69.2,63.8,29.99,NNE,19,11.0,11.0,83,0.00,,,0.00,VWS V14.01,2013-02-16 02:35:00,
2013-02-15 16:40:00,69.3,63.9,29.99,NE,35,7.0,9.0,83,0.00,,,0.00,VWS V14.01,2013-02-16 02:40:00,
2013-02-15 16:46:00,69.5,64.1,29.99,ENE,57,7.0,9.0,83,0.00,,,0.00,VWS V14.01,2013-02-16 02:46:00,
2013-02-15 16:51:00,69.6,64.2,30.00,ENE,63,13.0,18.0,83,0.00,,,0.00,VWS V14.01,2013-02-16 02:51:00,
2013-02-15 16:56:00,69.7,64.0,30.00,NNE,25,13.0,13.0,82,0.00,,,0.00,VWS V14.01,2013-02-16 02:56:00,
2013-02-15 17:01:00,69.8,64.1,30.00,NE,39,14.0,14.0,82,0.00,,,0.00,VWS V14.01,2013-02-16 03:01:00,
2013-02-15 17:06:00,69.9,63.8,30.00,ENE,59,11.0,11.0,81,0.00,,,0.00,VWS V14.01,2013-02-16 03:06:00,
2013-02-15 17:11:00,69.9,63.5,30.01,East,97,8.0,12.0,80,0.00,,,0.00,VWS V14.01,2013-02-16 03:11:00,
2013-02-15 17:16:00,70.2,62.7,30.01,ENE,57,9.0,13.0,77,0.00,,,0.00,VWS V14.01,2013-02-16 03:16:00,
2013-02-15 17:21:00,70.3,63.1,30.01,NE,34,6.0,6.0,78,0.00,,,0.00,VWS V14.01,2013-02-16 03:21:00,
2013-02-15 17:27:00,70.3,62.8,30.01,North,7,17.0,17.0,77,0.00,,,0.00,VWS V14.01,2013-02-16 03:27:00,
2013-02-15 17:32:00,70.3,62.8,30.02,NE,51,7.0,10.0,77,0.00,,,0.00,VWS V14.01,2013-02-16 03:32:00,
2013-02-15 17:37:00,70.3,62.4,30.01,NE,53,19.0,19.0,76,0.00,,,0.00,VWS V14.01,2013-02-16 03:37:00,
2013-02-15 17:42:00,70.3,62.4,30.01,NNE,23,23.0,23.0,76,0.00,,,0.00,VWS V14.01,2013-02-16 03:42:00,
2013-02-15 17:47:00,70.3,62.0,30.01,NNE,19,9.0,9.0,75,0.00,,,0.00,VWS V14.01,2013-02-16 03:47:00,
2013-02-15 17:52:00,70.3,62.0,30.01,NNE,22,13.0,13.0,75,0.00,,,0.00,VWS V14.01,2013-02-16 03:52:00,
2013-02-15 17:57:00,70.2,61.9,30.01,North,8,11.0,12.0,75,0.00,,,0.00,VWS V14.01,2013-02-16 03:57:00,
2013-02-15 18:02:00,70.2,61.9,30.02,NE,41,8.0,9.0,75,0.00,,,0.00,VWS V14.01,2013-02-16 04:02:00,
2013-02-15 18:07:00,70.2,61.9,30.02,NE,35,5.0,6.0,75,0.00,,,0.00,VWS V14.01,2013-02-16 04:07:00,
2013-02-15 18:13:00,70.2,61.9,30.02,NNE,23,14.0,16.0,75,0.00,,,0.00,VWS V14.01,2013-02-16 04:13:00,
2013-02-15 18:18:00,70.1,61.4,30.02,NE,38,15.0,15.0,74,0.00,,,0.00,VWS V14.01,2013-02-16 04:18:00,
2013-02-15 18:23:00,70.0,61.7,30.03,NE,54,11.0,13.0,75,0.00,,,0.00,VWS V14.01,2013-02-16 04:23:00,
2013-02-15 18:28:00,69.9,62.0,30.03,NNE,25,8.0,8.0,76,0.00,,,0.00,VWS V14.01,2013-02-16 04:28:00,
2013-02-15 18:33:00,69.7,61.8,30.03,ENE,73,8.0,13.0,76,0.00,,,0.00,VWS V14.01,2013-02-16 04:33:00,
2013-02-15 18:38:00,69.6,61.7,30.03,ENE,73,9.0,14.0,76,0.00,,,0.00,VWS V14.01,2013-02-16 04:38:00,
2013-02-15 18:43:00,69.6,62.1,30.03,NNW,329,15.0,18.0,77,0.00,,,0.00,VWS V14.01,2013-02-16 04:43:00,
2013-02-15 18:48:00,69.5,62.0,30.03,NNE,26,19.0,19.0,77,0.00,,,0.00,VWS V14.01,2013-02-16 04:48:00,
2013-02-15 18:53:00,69.5,62.3,30.03,NE,40,6.0,10.0,78,0.00,,,0.00,VWS V14.01,2013-02-16 04:53:00,
2013-02-15 18:58:00,69.4,62.2,30.03,North,1,23.0,23.0,78,0.00,,,0.00,VWS V14.01,2013-02-16 04:58:00,
2013-02-15 19:00:00,69.4,62.6,30.03,NE,39,10.0,16.0,79,0.00,,,0.00,VWS V14.01,2013-02-16 05:00:00,
2013-02-15 19:01:00,69.4,62.2,30.04,NE,34,7.0,14.0,78,0.00,,,0.00,VWS V14.01,2013-02-16 05:01:00,
2013-02-15 19:06:00,69.2,62.4,30.04,NE,37,12.0,12.0,79,0.00,,,0.00,VWS V14.01,2013-02-16 05:06:00,
2013-02-15 19:11:00,69.2,62.4,30.04,NNE,16,12.0,12.0,79,0.00,,,0.00,VWS V14.01,2013-02-16 05:11:00,
2013-02-15 19:16:00,69.2,62.4,30.04,NNE,26,13.0,19.0,79,0.00,,,0.00,VWS V14.01,2013-02-16 05:16:00,
2013-02-15 19:22:00,69.2,62.4,30.04,NNE,21,17.0,23.0,79,0.00,,,0.00,VWS V14.01,2013-02-16 05:22:00,
2013-02-15 19:24:00,69.2,62.4,30.04,North,357,22.0,22.0,79,0.00,,,0.00,VWS V14.01,2013-02-16 05:24:00,
2013-02-15 19:29:00,69.2,62.4,30.04,North,4,11.0,14.0,79,0.00,,,0.00,VWS V14.01,2013-02-16 05:29:00,
2013-02-15 19:34:00,69.1,62.7,30.04,NNE,27,22.0,27.0,80,0.00,,,0.00,VWS V14.01,2013-02-16 05:34:00,
2013-02-15 19:39:00,69.0,62.6,30.05,NNE,26,15.0,15.0,80,0.00,,,0.00,VWS V14.01,2013-02-16 05:39:00,
2013-02-15 19:44:00,68.9,62.5,30.04,NNE,29,13.0,19.0,80,0.00,,,0.00,VWS V14.01,2013-02-16 05:44:00,
2013-02-15 19:49:00,68.9,62.8,30.05,North,357,18.0,18.0,81,0.00,,,0.00,VWS V14.01,2013-02-16 05:49:00,
2013-02-15 19:54:00,68.9,62.8,30.05,NNE,13,16.0,16.0,81,0.00,,,0.00,VWS V14.01,2013-02-16 05:54:00,
2013-02-15 20:00:00,68.8,62.7,30.05,NNE,19,16.0,17.0,81,0.00,,,0.00,VWS V14.01,2013-02-16 06:00:00,
2013-02-15 20:05:00,68.7,63.0,30.06,NNE,22,10.0,11.0,82,0.00,,,0.00,VWS V14.01,2013-02-16 06:05:00,
2013-02-15 20:10:00,68.6,62.9,30.06,NE,43,11.0,12.0,82,0.00,,,0.00,VWS V14.01,2013-02-16 06:10:00,
2013-02-15 20:15:00,68.6,63.2,30.06,North,358,10.0,11.0,83,0.00,,,0.00,VWS V14.01,2013-02-16 06:15:00,
2013-02-15 20:20:00,68.6,63.2,30.07,North,11,15.0,15.0,83,0.00,,,0.00,VWS V14.01,2013-02-16 06:20:00,
2013-02-15 20:25:00,68.6,63.2,30.07,NNE,33,14.0,14.0,83,0.00,,,0.00,VWS V14.01,2013-02-16 06:25:00,
2013-02-15 20:30:00,68.6,63.2,30.07,NE,38,13.0,18.0,83,0.00,,,0.00,VWS V14.01,2013-02-16 06:30:00,
2013-02-15 20:35:00,68.6,63.2,30.07,NE,42,14.0,14.0,83,0.00,,,0.00,VWS V14.01,2013-02-16 06:35:00,
2013-02-15 20:40:00,68.6,63.2,30.07,ENE,57,10.0,10.0,83,0.00,,,0.00,VWS V14.01,2013-02-16 06:40:00,
2013-02-15 20:45:00,68.7,63.3,30.07,NNE,19,18.0,22.0,83,0.00,,,0.00,VWS V14.01,2013-02-16 06:45:00,
2013-02-15 20:50:00,68.6,63.6,30.07,NNE,19,8.0,10.0,84,0.00,,,0.00,VWS V14.01,2013-02-16 06:50:00,
2013-02-15 20:56:00,68.6,63.6,30.08,ENE,66,16.0,16.0,84,0.00,,,0.00,VWS V14.01,2013-02-16 06:56:00,
2013-02-15 21:01:00,68.4,63.4,30.08,ENE,62,6.0,13.0,84,0.00,,,0.00,VWS V14.01,2013-02-16 07:01:00,
2013-02-15 21:06:00,68.4,63.0,30.07,NNE,21,11.0,14.0,83,0.00,,,0.00,VWS V14.01,2013-02-16 07:06:00,
2013-02-15 21:11:00,68.4,63.0,30.07,NNE,22,23.0,23.0,83,0.00,,,0.00,VWS V14.01,2013-02-16 07:11:00,
2013-02-15 21:16:00,68.4,63.0,30.08,NNE,23,20.0,20.0,83,0.00,,,0.00,VWS V14.01,2013-02-16 07:16:00,
2013-02-15 21:21:00,68.3,62.9,30.08,NE,49,8.0,9.0,83,0.00,,,0.00,VWS V14.01,2013-02-16 07:21:00,
2013-02-15 21:26:00,68.3,62.9,30.09,NE,55,9.0,10.0,83,0.00,,,0.00,VWS V14.01,2013-02-16 07:26:00,
2013-02-15 21:31:00,68.3,62.9,30.09,NNE,23,7.0,7.0,83,0.00,,,0.00,VWS V14.01,2013-02-16 07:31:00,
2013-02-15 21:36:00,68.2,63.2,30.09,NNE,16,9.0,11.0,84,0.00,,,0.00,VWS V14.01,2013-02-16 07:36:00,
2013-02-15 21:41:00,68.2,63.5,30.09,NNE,19,10.0,10.0,85,0.00,,,0.00,VWS V14.01,2013-02-16 07:41:00,
2013-02-15 21:46:00,68.2,63.9,30.09,NE,47,13.0,13.0,86,0.00,,,0.00,VWS V14.01,2013-02-16 07:46:00,
2013-02-15 21:51:00,67.9,63.9,30.10,NE,43,4.0,5.0,87,0.00,,,0.00,VWS V14.01,2013-02-16 07:51:00,
2013-02-15 21:57:00,67.5,63.8,30.09,ENE,66,13.0,13.0,88,0.00,,,0.00,VWS V14.01,2013-02-16 07:57:00,
2013-02-15 22:02:00,67.2,63.5,30.09,ENE,57,7.0,7.0,88,0.00,,,0.00,VWS V14.01,2013-02-16 08:02:00,
2013-02-15 22:07:00,67.1,63.4,30.09,NNE,20,11.0,15.0,88,0.00,,,0.00,VWS V14.01,2013-02-16 08:07:00,
2013-02-15 22:12:00,67.2,63.5,30.10,ENE,57,11.0,11.0,88,0.00,,,0.00,VWS V14.01,2013-02-16 08:12:00,
2013-02-15 22:17:00,67.4,63.7,30.10,East,91,6.0,9.0,88,0.00,,,0.00,VWS V14.01,2013-02-16 08:17:00,
2013-02-15 22:22:00,67.6,63.9,30.10,NNE,20,15.0,15.0,88,0.00,,,0.00,VWS V14.01,2013-02-16 08:22:00,
2013-02-15 22:27:00,67.6,63.6,30.10,ENE,63,4.0,4.0,87,0.00,,,0.00,VWS V14.01,2013-02-16 08:27:00,
2013-02-15 22:32:00,67.6,63.6,30.10,NE,40,5.0,5.0,87,0.00,,,0.00,VWS V14.01,2013-02-16 08:32:00,
2013-02-15 22:37:00,67.7,63.7,30.10,NE,34,8.0,9.0,87,0.00,,,0.00,VWS V14.01,2013-02-16 08:37:00,
2013-02-15 22:42:00,67.7,63.4,30.10,NNE,26,6.0,6.0,86,0.00,,,0.00,VWS V14.01,2013-02-16 08:42:00,
2013-02-15 22:47:00,67.7,63.7,30.09,NNE,21,9.0,10.0,87,0.00,,,0.00,VWS V14.01,2013-02-16 08:47:00,
2013-02-15 22:53:00,67.9,63.9,30.09,NE,39,10.0,12.0,87,0.00,,,0.00,VWS V14.01,2013-02-16 08:53:00,
2013-02-15 22:58:00,67.9,63.9,30.09,North,6,11.0,12.0,87,0.00,,,0.00,VWS V14.01,2013-02-16 08:58:00,
2013-02-15 23:03:00,68.0,64.0,30.09,NE,35,7.0,8.0,87,0.00,,,0.00,VWS V14.01,2013-02-16 09:03:00,
2013-02-15 23:08:00,68.1,64.1,30.10,NNE,24,10.0,10.0,87,0.00,,,0.00,VWS V14.01,2013-02-16 09:08:00,
2013-02-15 23:13:00,68.1,64.1,30.10,NNE,23,13.0,13.0,87,0.00,,,0.00,VWS V14.01,2013-02-16 09:13:00,
2013-02-15 23:18:00,68.0,64.0,30.09,NNE,22,7.0,7.0,87,0.00,,,0.00,VWS V14.01,2013-02-16 09:18:00,
2013-02-15 23:23:00,67.9,64.2,30.09,NE,53,10.0,11.0,88,0.00,,,0.00,VWS V14.01,2013-02-16 09:23:00,
2013-02-15 23:28:00,67.7,64.0,30.10,NNE,31,9.0,10.0,88,0.00,,,0.00,VWS V14.01,2013-02-16 09:28:00,
2013-02-15 23:33:00,67.7,64.0,30.10,ENE,59,7.0,7.0,88,0.00,,,0.00,VWS V14.01,2013-02-16 09:33:00,
2013-02-15 23:38:00,67.6,63.9,30.10,NNE,29,11.0,11.0,88,0.00,,,0.00,VWS V14.01,2013-02-16 09:38:00,
2013-02-15 23:43:00,67.6,63.9,30.10,NE,36,6.0,10.0,88,0.00,,,0.00,VWS V14.01,2013-02-16 09:43:00,
2013-02-15 23:48:00,67.6,63.9,30.10,NE,47,9.0,9.0,88,0.00,,,0.00,VWS V14.01,2013-02-16 09:48:00,
2013-02-15 23:53:00,67.6,63.9,30.10,NE,35,5.0,8.0,88,0.00,,,0.00,VWS V14.01,2013-02-16 09:53:00,
2013-02-15 23:58:00,67.5,63.8,30.09,NE,47,7.0,8.0,88,0.00,,,0.00,VWS V14.01,2013-02-16 09:58:00,